Wind_Speed
45 45 45 44 44 43 43 43 42 41 41 40 39 38 36 35 34 33 31 31 30 29 27 24 22 21 20 20 19 17 16 16 17 17 18 22 28 33 38 44 46 47 47 46 45 43 42 40 40 39 38 38 37 37 37 37 36 36 35 35 34 34 33 32 31 30 29 28 27 25 24 23 22 22 22 23 24 25 26 27 29 29 30 32 34 36 35 33
47 47 47 46 46 45 45 45 44 44 43 42 41 40 39 38 37 35 34 33 32 32 30 28 26 24 23 23 22 21 19 19 19 17 16 19 24 28 33 38 42 45 48 48 47 46 45 43 42 41 40 39 39 39 39 38 38 37 37 37 36 35 35 34 32 31 30 29 27 26 25 25 24 24 24 24 25 26 26 28 29 29 30 32 34 35 33 31
49 49 49 48 48 48 47 47 46 46 45 44 43 42 41 41 39 38 37 35 34 34 33 31 29 28 26 25 24 24 22 22 22 20 18 18 20 24 28 31 36 41 45 48 49 49 48 46 45 44 43 42 42 41 41 40 39 39 38 38 37 37 36 35 34 33 31 30 28 27 27 26 26 26 25 25 25 26 27 28 29 29 30 32 33 33 30 30
50 50 50 50 50 50 49 49 48 48 47 46 45 44 44 43 42 41 39 38 36 36 36 35 33 31 29 28 27 26 25 24 25 23 21 20 20 22 24 26 30 36 41 46 49 50 50 49 48 46 45 45 44 43 42 42 41 40 39 39 38 37 37 36 34 33 32 30 29 28 28 28 27 27 27 26 27 27 27 28 29 29 30 32 33 31 28 29
52 52 52 52 52 52 51 51 51 50 49 49 47 47 46 45 44 43 42 41 39 38 38 37 36 35 33 31 30 29 28 26 27 27 24 22 22 23 24 23 26 31 36 41 45 48 50 51 50 49 48 47 46 45 44 43 42 41 40 40 39 38 37 36 35 34 33 31 30 30 29 29 29 29 29 28 29 29 29 29 29 29 30 31 31 28 26 28
53 53 53 53 54 53 53 53 52 52 51 51 50 49 48 48 46 45 45 44 42 41 40 40 39 38 36 35 33 32 30 29 30 30 27 24 24 26 26 24 24 27 30 34 40 45 48 50 51 51 51 50 49 47 45 44 44 43 42 42 41 39 38 37 36 35 33 32 32 32 31 31 32 32 31 31 31 30 30 30 30 29 30 30 28 25 25 27
54 54 54 55 55 55 55 54 54 53 53 52 51 50 50 50 49 48 47 46 45 44 43 43 42 41 39 38 37 35 34 33 33 32 31 29 27 27 28 27 26 26 26 28 33 38 42 46 49 51 52 52 51 48 47 47 47 46 45 44 43 41 39 39 38 37 35 34 34 34 34 34 35 35 34 33 33 32 32 31 30 29 29 29 25 22 24 25
55 55 55 56 56 56 56 55 55 55 54 53 52 52 52 52 51 50 50 49 48 47 46 46 45 43 42 41 40 39 37 36 35 34 34 33 31 29 30 30 29 28 26 27 29 31 36 41 44 48 50 51 51 51 51 50 49 49 47 45 44 42 40 40 40 39 38 38 38 37 37 37 37 37 36 35 34 34 32 31 30 29 28 26 22 21 23 24
55 56 56 56 57 57 57 57 56 56 55 55 54 54 54 54 53 53 52 51 51 50 49 48 48 47 45 44 43 42 41 39 38 37 37 36 34 32 32 32 32 31 29 29 29 30 32 34 37 41 43 45 49 52 52 52 52 51 48 47 46 45 44 43 42 41 41 41 41 41 40 39 40 39 38 37 35 34 32 31 30 28 27 23 19 19 22 22
56 56 56 57 58 58 58 58 58 58 58 57 57 57 57 57 56 56 55 54 53 52 52 51 50 50 49 48 47 45 44 43 41 40 40 39 37 35 34 34 34 33 32 32 32 31 29 27 29 31 34 39 45 48 50 51 51 51 50 50 50 49 49 47 45 45 44 44 43 43 43 41 41 41 39 38 36 34 32 30 28 26 24 19 17 19 20 20
56 57 57 58 59 59 59 60 60 60 60 59 59 59 59 59 59 59 58 57 56 55 54 54 53 53 52 51 50 48 47 46 45 44 43 42 40 38 36 37 36 35 35 34 34 32 28 25 26 27 29 34 38 41 43 44 46 49 51 52 52 52 52 51 49 49 47 46 45 45 45 43 42 41 40 37 35 33 31 29 26 24 21 17 16 17 18 18
57 58 58 59 59 60 60 61 61 61 61 61 61 61 61 62 61 61 61 60 58 57 57 57 56 56 55 55 53 50 49 49 48 47 45 44 43 41 39 39 39 37 37 37 36 34 31 29 29 29 28 28 30 31 32 34 39 43 47 49 50 50 51 52 52 50 49 48 47 47 46 44 42 41 39 36 33 31 29 27 24 22 19 15 15 16 16 15
59 59 59 60 60 61 61 62 62 62 63 63 62 62 63 63 63 63 63 62 61 60 60 59 59 59 59 58 55 52 53 53 51 49 47 46 46 44 42 42 41 41 40 39 37 36 35 33 33 31 29 28 27 25 23 26 31 35 39 42 44 47 49 50 50 50 49 48 47 47 46 43 41 40 37 34 31 29 27 24 22 20 16 13 14 14 13 13
62 62 62 63 63 63 64 63 63 64 64 64 63 63 64 64 65 65 65 64 62 62 62 62 62 62 62 61 56 55 56 56 53 51 50 50 49 48 46 45 45 45 43 41 39 38 37 37 35 33 32 31 29 25 21 22 26 28 31 33 36 41 43 45 46 47 47 46 46 46 43 41 39 37 34 32 29 26 24 23 21 18 14 12 13 12 11 11
67 67 67 67 67 67 67 67 66 66 66 66 65 64 65 65 66 66 66 65 63 64 64 64 64 64 65 64 59 58 59 57 55 54 54 53 52 52 50 49 48 47 45 43 41 40 39 39 38 36 36 34 31 28 24 23 25 26 26 27 30 32 33 35 38 41 42 43 43 43 40 38 35 33 32 30 27 25 23 21 19 16 12 11 13 11 9 9
72 72 72 71 72 72 72 71 71 71 70 69 68 67 67 67 67 67 68 66 65 65 65 65 66 67 67 66 63 61 61 60 59 58 57 57 55 54 53 51 50 49 48 46 43 42 41 42 41 39 37 35 34 33 29 25 26 28 26 25 25 25 26 28 31 34 36 38 39 38 36 34 31 31 30 28 25 24 21 19 17 14 12 12 12 9 7 7
74 75 75 75 76 76 77 76 76 76 75 74 73 71 71 71 70 70 70 67 66 66 67 67 68 68 69 68 65 63 63 64 63 61 61 60 59 57 55 55 54 52 51 48 45 43 43 44 44 42 38 37 37 37 34 31 31 32 29 25 23 23 23 25 26 28 31 34 34 33 32 31 30 30 28 26 25 22 20 18 16 13 12 12 11 8 6 6
74 75 76 76 77 78 79 79 80 80 80 79 78 77 76 75 75 75 73 70 68 68 68 69 70 70 70 69 67 65 65 66 66 65 64 63 62 59 58 58 56 53 51 49 47 45 45 46 46 43 40 38 38 38 40 40 38 35 29 25 22 21 21 21 21 23 27 28 28 28 29 29 29 28 27 25 23 21 19 18 16 13 12 12 10 7 5 4
74 75 76 77 77 78 79 80 80 81 82 83 83 82 81 81 80 80 78 74 71 71 71 71 71 71 71 69 69 68 67 68 69 68 67 67 65 62 61 59 58 55 52 50 50 48 48 48 46 43 41 41 42 44 47 46 39 35 31 26 23 20 20 19 18 20 21 22 23 25 26 26 27 26 25 24 22 21 20 19 16 14 12 11 9 7 5 4
72 74 75 76 76 77 79 80 81 81 82 83 84 84 84 85 85 85 84 79 76 76 75 74 74 73 73 71 70 70 70 70 71 71 70 70 68 65 63 61 59 57 54 53 54 53 51 49 46 45 46 48 49 49 50 46 39 36 33 28 25 22 21 19 17 18 18 18 21 23 23 24 25 24 24 23 22 21 20 19 16 14 12 10 8 6 5 3
69 70 71 73 73 75 77 78 80 81 83 84 85 85 85 86 87 88 88 85 81 80 80 78 77 77 75 74 72 72 72 72 72 72 72 72 70 67 64 62 60 58 57 58 58 56 52 47 47 50 52 52 50 48 49 47 43 40 35 31 28 25 23 21 19 18 17 18 20 21 21 22 23 23 23 23 22 21 20 18 16 14 12 10 7 5 5 3
69 70 71 72 72 73 74 76 78 79 81 83 84 86 87 87 88 88 89 89 85 84 85 83 81 80 79 78 76 75 75 74 75 73 73 74 72 69 66 64 61 60 62 61 59 56 50 48 53 57 55 53 51 49 49 49 48 44 40 35 31 30 27 24 22 21 20 20 20 21 21 22 23 22 23 22 21 20 20 18 17 15 13 11 8 5 5 4
73 74 75 77 77 76 77 78 78 79 80 82 83 84 87 89 90 89 89 90 88 86 87 88 86 85 83 82 81 79 78 78 77 75 75 75 74 71 69 66 64 64 64 62 59 56 53 55 61 60 57 55 52 51 51 51 49 47 45 40 37 36 32 28 26 24 23 22 21 22 22 22 22 22 22 20 20 21 20 19 18 16 14 12 8 5 6 4
78 79 80 81 82 82 82 83 82 82 82 82 82 83 85 87 90 91 91 92 91 89 88 90 90 89 88 86 85 84 82 82 80 78 76 76 76 73 70 68 67 66 65 63 62 59 58 63 63 59 59 58 55 54 53 52 51 49 49 47 44 41 37 33 30 27 26 25 23 24 22 21 22 23 23 21 22 22 21 21 20 17 15 12 9 6 6 5
81 82 82 84 85 85 86 87 87 86 85 85 85 84 85 86 88 90 91 92 93 92 91 91 91 91 92 91 89 88 87 86 84 81 80 79 77 75 72 71 70 68 66 66 65 62 63 66 62 60 62 60 57 55 54 54 53 51 51 52 50 45 41 37 32 30 30 27 26 26 24 22 23 25 25 24 24 24 23 23 20 17 15 12 9 7 7 6
81 82 83 83 85 86 86 88 89 89 88 87 86 86 86 87 88 89 90 91 93 94 94 94 93 92 93 93 93 93 92 91 89 85 83 82 80 77 76 74 71 70 70 70 68 65 66 68 64 62 63 61 59 56 55 55 54 52 54 57 55 49 43 40 36 34 33 30 28 28 27 25 24 25 25 25 26 26 25 23 20 18 15 13 11 9 8 7
81 82 82 82 83 85 86 88 89 90 90 89 88 87 87 88 89 90 91 91 93 95 95 95 95 94 93 94 95 96 96 96 94 90 86 85 83 81 79 77 75 74 74 73 69 66 68 69 65 63 64 63 60 57 57 57 55 56 59 59 57 51 46 43 40 37 36 34 29 28 29 28 27 27 26 25 26 26 25 23 21 19 17 15 13 11 10 9
81 81 81 81 82 83 85 87 88 89 90 90 89 88 87 88 89 91 92 93 94 95 95 96 97 97 95 95 96 97 98 98 98 95 90 88 87 85 82 81 79 79 78 75 69 67 70 70 66 66 67 64 61 60 61 59 58 62 62 58 58 56 50 45 42 40 40 36 29 28 31 30 30 31 28 27 25 25 25 24 23 22 19 17 15 12 12 11
80 80 78 78 78 79 81 83 84 86 87 87 87 87 86 85 86 88 90 93 95 96 97 97 97 98 98 98 98 99 99 99 100 98 95 93 92 89 87 85 84 83 81 77 72 71 73 72 69 69 68 65 65 65 64 60 61 65 62 59 61 60 53 48 44 43 43 37 29 30 31 31 33 33 28 28 27 28 30 29 27 25 21 18 17 14 13 12
76 75 74 73 73 74 76 78 79 80 82 82 83 83 82 82 81 82 84 88 92 95 98 99 98 98 99 100 100 100 100 100 101 100 98 97 97 94 92 91 88 86 84 80 76 75 76 74 73 70 68 68 69 69 66 63 64 66 64 62 62 61 56 49 46 46 44 37 33 33 33 33 35 34 30 29 31 33 34 32 29 27 23 21 19 17 16 14
71 70 69 68 68 70 73 74 75 75 77 78 79 79 79 78 77 78 79 82 86 90 95 99 100 99 100 101 101 102 102 102 102 101 100 100 100 100 97 95 93 90 87 84 80 79 78 76 73 70 70 71 71 70 68 66 67 68 65 64 63 62 58 51 47 45 41 37 39 39 37 35 35 35 34 35 36 35 34 33 31 29 26 23 21 19 18 16
67 67 66 64 65 67 70 72 71 71 71 73 74 75 76 75 75 75 75 77 79 83 89 96 100 100 100 102 102 103 104 104 104 103 102 102 103 103 102 99 97 93 90 87 83 82 80 77 75 73 73 73 72 71 70 68 69 69 67 65 63 62 59 53 48 43 38 38 43 44 40 37 35 37 38 38 38 37 37 36 33 30 27 24 22 21 20 17
64 64 65 63 63 65 67 68 67 66 67 68 69 71 72 72 72 72 73 74 74 77 83 90 96 100 101 102 103 104 104 105 105 105 105 104 104 105 104 102 99 96 93 90 87 85 82 80 78 77 75 74 73 72 71 69 69 69 67 65 63 62 60 55 50 45 42 42 46 47 44 39 37 40 39 40 42 41 40 39 35 32 29 26 24 23 21 20
63 63 63 62 62 63 63 62 61 61 62 63 64 65 67 67 68 69 70 72 72 74 79 84 91 97 101 102 103 105 106 106 106 107 107 106 106 106 106 103 101 100 97 94 91 89 86 83 80 78 77 76 75 73 72 72 72 71 70 68 65 63 60 57 54 50 47 46 48 50 46 40 39 43 43 44 47 44 42 40 38 35 31 28 26 23 22 21
63 62 62 61 60 59 58 57 56 57 57 58 60 61 62 63 64 66 68 70 71 73 76 80 86 92 97 101 103 105 107 107 107 108 107 108 108 108 107 105 103 102 101 99 96 93 89 85 83 81 80 78 77 76 75 75 74 73 72 71 67 63 62 60 58 55 53 52 51 50 47 42 42 48 49 49 50 47 45 44 40 37 34 31 28 25 24 24
63 62 59 57 56 55 54 53 53 54 53 54 55 57 57 58 60 63 65 67 69 71 74 77 82 87 93 98 101 105 107 108 108 108 108 109 110 110 109 108 105 103 102 102 100 97 92 88 87 85 82 81 80 79 79 76 75 75 73 69 65 64 65 64 61 58 57 55 53 52 50 47 47 51 53 53 52 50 48 46 43 41 37 33 30 29 28 28
63 60 57 54 53 52 50 49 50 50 49 50 51 52 53 54 56 58 61 64 66 69 72 75 78 84 90 95 99 103 107 108 108 109 110 110 110 111 111 110 108 105 103 103 102 99 94 91 91 89 85 84 83 82 82 79 77 77 73 68 67 69 69 66 64 61 58 55 54 54 52 50 50 53 54 54 53 51 51 49 47 44 40 35 33 33 32 31
59 57 55 52 50 49 48 47 47 47 46 46 47 47 48 50 51 54 57 60 63 66 69 72 76 81 87 92 96 101 105 108 109 110 110 111 111 111 111 111 110 107 105 104 102 100 96 94 95 93 89 88 87 85 85 82 80 78 74 72 73 73 70 67 64 61 56 54 54 55 54 51 49 52 55 54 53 52 51 51 49 46 42 38 37 36 34 32
55 54 51 49 47 46 46 45 44 43 43 42 43 43 44 46 47 49 52 55 59 62 65 69 73 78 84 89 94 99 103 106 108 110 111 111 111 111 111 111 111 109 107 105 103 101 97 96 98 96 93 92 90 89 86 83 81 80 77 76 76 74 71 69 66 63 60 57 55 56 56 51 48 52 56 55 54 54 51 50 49 47 43 41 40 38 35 33
53 51 47 44 43 43 42 42 41 40 40 40 40 40 40 42 44 46 48 51 55 58 61 65 70 75 80 86 91 96 100 104 107 109 110 111 111 111 111 111 110 110 109 107 104 102 99 98 99 99 97 95 94 91 88 86 85 83 80 78 77 74 72 70 68 66 64 61 58 58 58 53 50 55 58 56 55 55 53 51 50 47 45 43 41 38 35 34
51 49 45 41 40 40 39 39 39 38 38 38 38 38 38 39 40 42 45 48 51 55 58 61 66 71 76 81 87 92 97 101 105 107 109 111 112 111 111 111 111 110 110 109 106 103 101 99 99 100 100 98 96 93 91 90 89 87 84 81 78 76 74 72 69 66 63 60 58 58 58 55 54 58 60 57 56 56 54 52 50 48 46 43 42 40 37 36
46 45 43 40 38 38 38 38 38 38 38 38 38 37 37 38 39 40 42 44 48 51 54 58 62 66 71 76 82 88 93 98 102 105 108 110 112 111 111 112 111 110 110 109 108 106 103 100 100 101 100 99 99 97 95 94 91 89 87 83 81 79 77 74 69 65 64 60 58 58 56 56 57 60 62 60 57 56 55 53 52 49 47 45 44 42 40 39
42 41 41 39 37 37 38 37 37 37 38 38 37 36 35 36 38 38 39 42 45 47 50 54 57 61 66 71 77 83 89 95 100 104 107 109 111 112 112 112 112 111 110 109 109 107 105 102 101 102 100 100 101 101 100 98 94 93 89 86 85 82 80 76 70 68 68 64 62 59 55 57 61 62 63 62 59 57 56 54 53 51 48 46 44 43 42 40
40 38 38 39 38 37 37 37 36 36 36 37 36 35 35 35 37 38 37 39 42 43 45 49 52 55 61 67 72 78 85 91 96 102 105 108 110 111 112 112 112 112 111 110 109 107 106 104 103 104 103 103 105 106 104 101 98 96 93 90 88 85 82 77 73 73 71 66 64 59 55 61 63 62 64 64 60 58 55 53 53 51 48 46 44 44 43 42
38 36 36 37 37 37 37 38 37 36 36 36 35 35 34 34 36 37 36 37 39 40 41 44 47 51 56 62 68 73 79 86 93 98 103 107 109 110 111 112 112 112 112 110 108 107 107 106 106 107 107 106 107 106 104 102 101 99 96 93 91 88 84 80 78 76 70 66 65 59 59 65 64 61 63 63 59 57 55 53 53 52 50 48 47 46 45 44
36 35 34 35 36 36 36 38 39 38 37 36 35 34 33 32 34 35 35 35 35 36 37 39 43 48 52 57 64 70 75 82 89 95 101 105 108 109 111 112 112 112 112 111 109 108 107 106 107 109 109 107 106 105 103 102 102 100 98 95 92 90 87 83 81 76 69 68 65 61 63 68 64 61 63 62 60 58 56 54 54 53 53 52 49 48 47 47
34 33 32 32 33 34 34 36 38 38 38 38 36 35 33 33 34 33 33 34 33 31 33 36 39 44 48 52 59 66 71 77 85 92 98 103 106 108 109 111 111 112 112 111 109 108 107 106 107 109 110 109 107 106 103 101 101 100 98 96 94 92 89 85 81 75 72 70 65 63 67 68 64 63 64 62 61 60 57 56 54 54 55 54 52 51 51 50
32 31 30 29 30 32 34 35 36 37 37 38 37 35 33 33 33 33 32 32 31 28 30 33 36 39 44 49 54 61 67 73 80 87 94 99 103 106 108 109 111 111 111 111 110 109 107 106 107 108 110 110 109 107 104 102 101 99 98 97 96 94 91 86 81 77 75 71 67 67 70 68 65 67 67 66 66 63 59 57 55 56 57 56 54 53 53 52
31 30 29 29 29 31 33 35 36 36 36 37 36 35 33 32 33 32 30 30 29 26 26 30 32 35 40 45 50 56 62 68 74 82 88 94 99 103 106 107 109 110 110 110 110 109 107 106 106 107 109 111 111 110 107 103 101 99 98 99 98 95 92 87 83 80 77 73 71 72 70 69 69 69 69 70 68 65 61 58 57 58 58 56 55 54 53 53
31 30 29 29 29 31 33 35 36 37 38 38 37 36 34 32 32 32 29 27 27 26 24 26 29 31 35 40 45 51 57 62 68 75 81 87 94 99 103 105 106 108 109 109 109 109 107 106 106 106 108 111 112 112 109 104 101 100 100 99 98 95 93 89 86 83 79 76 75 75 72 71 72 71 71 71 68 65 63 60 60 60 59 57 55 54 54 54
31 31 30 29 29 31 33 35 37 39 40 41 40 38 36 35 34 33 30 27 24 24 23 23 25 28 31 36 41 46 52 57 63 68 74 80 87 93 98 101 102 104 106 107 107 108 107 106 105 105 107 111 113 112 110 106 103 103 102 100 97 95 94 91 88 85 81 78 78 77 74 74 76 74 72 70 67 66 64 62 62 61 59 58 57 57 56 56
32 32 32 30 29 31 33 36 39 41 43 44 43 41 39 37 36 34 31 28 24 22 21 22 23 25 28 33 38 42 48 53 59 63 68 74 80 86 93 97 99 101 103 105 105 106 107 106 106 105 106 110 112 111 110 108 106 106 104 100 97 95 94 92 89 86 83 81 81 78 75 77 80 77 73 70 68 66 64 63 62 61 60 59 59 59 58 57
Wind_Direction
254 255 256 257 257 258 259 260 261 262 263 264 264 264 264 263 263 263 262 262 261 258 254 250 244 239 238 238 236 231 230 235 235 224 218 223 225 225 226 226 226 227 227 227 227 228 229 230 231 231 232 233 234 235 235 237 237 238 239 241 243 245 247 249 252 255 258 260 262 265 268 271 275 279 283 287 291 295 299 304 308 310 312 316 321 325 328 329
254 255 255 256 257 258 259 260 260 261 262 263 263 263 263 262 262 262 262 261 261 260 257 253 249 244 239 238 237 235 232 233 235 227 221 226 226 225 227 228 227 228 229 229 228 229 229 230 231 232 232 233 235 236 237 238 239 239 240 241 243 244 246 248 250 252 255 257 260 263 267 270 274 277 281 285 289 294 298 302 306 308 312 317 321 325 328 328
255 255 256 256 256 257 258 259 260 260 261 262 262 262 262 261 261 260 260 260 260 261 259 256 252 248 244 240 237 236 234 235 235 229 225 231 231 227 226 227 229 229 229 230 229 230 230 230 231 232 233 233 234 235 237 238 239 240 241 242 243 244 245 247 249 251 253 255 258 262 265 270 273 277 280 284 289 293 296 300 304 308 312 317 321 324 327 327
257 257 257 257 257 257 257 258 259 260 260 261 261 261 260 260 260 260 259 259 259 259 260 258 255 251 248 245 240 236 235 236 236 231 226 232 236 233 227 225 229 229 229 230 230 230 231 231 231 232 234 235 235 236 237 238 239 240 242 243 243 244 245 246 247 249 251 254 256 260 264 268 272 275 278 282 286 290 294 299 302 307 311 316 320 324 326 326
259 259 259 259 258 258 258 258 259 259 259 259 260 260 259 259 259 259 259 258 258 258 258 258 257 254 251 248 244 240 236 236 238 235 227 228 236 238 231 224 228 230 230 231 231 231 231 232 232 233 234 235 236 237 238 240 241 242 243 245 245 246 247 247 248 249 251 253 256 259 262 266 270 273 276 280 285 289 293 297 300 306 310 315 319 323 323 324
259 259 260 259 259 259 259 259 259 259 258 258 258 258 258 258 258 258 258 258 257 257 257 257 257 255 253 251 248 244 240 237 238 237 232 227 231 238 237 230 230 232 231 232 233 232 232 233 233 234 234 235 237 238 239 241 242 243 243 245 246 246 247 249 250 250 251 253 256 259 262 265 268 272 276 280 284 288 292 295 299 304 308 314 318 321 321 322
259 259 259 259 259 259 259 259 259 259 259 258 257 257 256 256 256 256 256 257 257 256 256 256 256 255 254 252 250 248 244 241 238 237 236 230 228 235 238 236 234 234 232 233 234 234 233 234 234 234 235 236 237 238 240 241 243 243 244 245 246 247 247 248 250 251 252 254 256 259 262 265 268 272 275 279 283 287 291 294 299 302 306 313 317 319 317 321
260 260 259 259 259 259 259 259 258 258 258 257 256 255 255 255 255 255 255 255 255 255 255 255 255 254 254 253 252 250 247 245 240 238 239 234 229 233 237 238 238 236 233 234 236 234 233 234 234 235 237 238 238 238 239 241 242 243 244 246 248 249 249 249 250 251 252 253 256 258 262 265 268 271 274 278 282 286 289 292 296 299 306 312 315 314 313 321
262 261 261 261 260 260 259 259 258 258 257 256 255 255 254 254 254 254 254 254 254 253 253 254 254 254 253 252 251 251 249 247 242 239 241 238 231 232 236 237 239 238 236 235 237 235 233 233 235 237 238 239 239 238 239 240 242 244 246 247 249 251 251 251 250 251 251 253 255 258 261 264 267 270 273 277 280 284 287 290 293 298 305 309 309 308 311 322
263 262 262 261 261 260 260 259 258 258 257 256 255 255 254 254 253 253 253 253 253 252 252 252 253 253 252 251 250 250 249 248 244 242 242 240 234 231 234 237 238 239 238 238 239 238 235 234 236 236 236 237 238 238 239 241 243 244 246 247 248 249 250 251 251 251 251 252 255 258 260 262 265 268 272 275 278 281 284 287 291 297 302 302 301 303 310 323
263 262 262 261 261 260 260 259 259 258 257 257 256 255 255 254 253 253 253 252 252 252 252 251 251 251 251 251 249 249 249 248 246 244 242 242 238 232 233 236 238 239 239 239 240 239 237 235 236 236 234 236 238 239 240 241 242 243 244 245 246 247 249 250 250 250 251 253 255 258 260 262 264 267 270 273 276 279 281 285 289 294 296 294 294 299 309 324
264 263 263 262 261 261 260 259 259 258 257 256 256 255 255 254 253 253 252 252 251 251 251 251 250 250 250 249 248 248 249 248 246 244 242 243 241 236 233 235 238 239 239 239 240 240 238 237 239 239 237 238 239 238 238 239 240 241 242 243 244 245 247 248 249 250 251 253 254 256 258 261 263 265 268 270 272 275 278 281 285 288 286 284 289 296 309 327
265 264 264 263 263 262 261 260 259 258 258 257 256 255 255 254 254 253 252 251 250 250 250 250 250 249 249 247 246 247 248 247 245 243 243 244 243 239 235 234 236 238 238 238 238 239 239 238 238 240 241 242 240 235 233 237 239 239 241 242 242 243 244 246 248 249 251 252 253 254 256 258 260 262 265 266 268 270 274 277 279 278 274 275 284 292 308 329
266 265 264 264 263 263 262 261 260 259 258 257 256 255 255 254 254 253 252 251 250 250 249 249 249 249 249 247 245 247 247 246 245 245 245 243 243 241 237 234 234 236 237 236 237 238 239 239 238 239 241 242 241 236 231 237 240 239 240 240 240 242 244 246 247 248 249 250 250 252 253 255 256 258 260 261 262 265 267 270 271 267 262 268 278 287 308 330
266 265 265 264 263 263 262 261 261 260 259 258 257 256 255 254 253 253 252 251 250 250 249 248 248 248 248 246 245 246 246 245 245 245 244 242 241 241 238 235 233 234 236 236 235 235 237 239 238 237 239 241 243 241 235 237 243 243 240 239 239 240 242 243 245 246 247 248 249 250 250 251 252 253 254 256 256 258 259 262 261 254 251 261 271 283 308 330
266 265 264 264 263 263 262 261 261 260 259 258 257 256 255 255 253 253 252 251 250 250 249 248 248 247 247 246 244 244 245 245 244 244 243 241 240 239 239 238 234 233 235 235 234 234 236 238 238 236 237 240 243 244 240 236 242 244 240 237 238 237 235 236 238 241 243 244 246 248 247 247 246 247 249 250 250 250 251 251 247 239 242 256 265 280 306 332
266 265 264 263 263 262 262 261 261 260 259 258 257 256 255 255 254 253 252 250 249 249 249 248 248 247 246 246 245 243 244 245 244 244 243 241 240 238 238 238 235 232 232 234 234 234 235 237 238 236 234 236 240 243 243 237 234 238 236 232 234 235 233 233 233 236 238 240 243 244 245 242 240 241 243 244 243 243 241 236 230 229 238 252 261 276 299 331
268 267 266 265 264 263 262 261 260 260 259 258 257 256 255 254 254 253 251 250 249 249 248 248 248 247 246 246 245 243 243 244 244 243 242 240 239 237 236 236 236 233 232 234 235 234 235 236 237 237 235 234 237 240 242 239 233 235 237 233 233 234 235 233 230 232 236 239 240 240 239 237 235 238 239 237 236 234 229 221 218 222 233 247 258 269 289 332
269 268 267 266 265 264 263 262 261 260 259 258 257 256 255 254 253 252 251 249 248 248 248 247 247 247 246 245 245 244 242 242 243 242 242 241 239 236 235 234 235 235 232 233 234 233 233 234 235 237 235 231 230 232 237 239 234 234 237 236 235 233 234 232 227 230 232 233 234 232 231 231 231 233 231 228 226 224 219 212 211 217 226 241 255 266 285 336
270 269 269 268 267 266 265 263 262 261 260 259 257 256 255 254 253 252 251 249 247 247 247 247 247 247 246 245 244 244 243 242 242 242 241 241 239 236 234 232 233 234 233 233 233 231 230 232 234 235 233 230 229 231 237 242 239 236 235 234 235 232 231 228 223 225 226 225 226 225 223 223 225 226 223 219 216 216 213 209 209 213 221 233 247 264 284 327
271 270 269 268 267 266 265 264 263 261 260 259 258 256 255 254 252 252 251 248 246 246 246 246 246 246 246 245 244 243 243 242 241 241 241 241 239 238 235 232 231 234 235 233 230 230 229 231 234 235 233 232 231 232 238 243 244 241 236 231 233 232 231 228 220 218 219 219 220 219 214 213 215 214 212 210 208 210 210 209 210 212 218 224 232 255 279 303
273 272 271 269 267 266 265 264 263 262 260 259 258 257 255 254 252 251 251 249 246 244 245 245 244 245 245 244 244 243 242 242 241 240 241 241 240 238 237 233 231 232 234 232 230 230 229 231 233 232 232 232 232 231 234 239 242 242 239 232 228 230 229 226 221 216 213 213 216 214 206 204 206 204 204 205 204 207 209 209 211 213 217 219 219 236 266 280
276 274 273 272 270 268 266 264 263 261 260 259 258 257 255 254 253 251 250 250 247 243 243 244 243 243 243 243 243 242 242 241 241 240 240 241 241 239 237 235 232 232 233 232 231 230 229 231 232 230 230 231 230 230 231 234 237 240 241 235 228 226 225 223 223 219 214 209 212 216 207 198 199 199 201 203 204 208 210 211 213 214 217 220 214 215 246 262
277 276 275 274 272 270 269 266 264 262 260 259 258 257 256 255 253 252 250 249 248 244 242 242 242 241 241 242 242 242 241 241 240 239 239 240 241 240 238 237 234 232 231 232 231 229 229 233 232 229 230 230 229 229 229 232 234 235 239 237 230 225 222 221 221 219 217 209 205 214 214 198 194 196 197 201 208 212 212 213 214 214 218 223 216 210 230 241
278 277 276 275 273 272 271 269 267 264 262 260 258 257 256 255 254 253 251 250 248 246 243 241 240 240 240 240 240 241 241 240 239 238 238 239 239 239 238 237 235 234 232 231 230 228 230 233 231 228 229 230 229 229 229 230 231 231 235 237 234 227 222 221 219 218 220 212 201 208 216 206 197 198 196 198 209 214 215 216 216 215 219 225 222 216 226 230
280 279 277 276 275 273 272 270 269 267 265 262 259 257 255 255 254 253 252 250 249 247 244 242 240 238 238 239 239 239 239 240 239 237 237 238 238 237 237 236 235 234 232 230 229 228 230 232 230 228 229 229 229 229 229 230 230 230 230 234 236 230 223 221 218 218 220 216 203 202 213 214 207 204 197 199 210 215 215 217 217 216 219 224 224 220 226 230
281 280 279 278 277 275 274 272 270 268 267 265 262 259 256 254 253 252 251 249 248 247 245 243 241 239 237 237 238 237 237 238 239 237 236 237 237 236 236 236 235 234 233 230 228 228 231 232 230 228 229 229 228 228 229 228 228 229 228 231 237 234 226 221 218 218 220 220 209 200 209 215 215 211 200 200 214 220 220 220 220 219 218 221 224 222 226 231
283 282 281 280 278 277 275 273 272 270 268 266 264 262 259 255 252 251 249 248 247 246 245 243 242 240 237 236 236 237 236 237 237 237 235 235 236 236 235 235 234 234 233 231 228 228 231 232 229 228 228 227 227 228 228 226 226 228 227 229 235 236 230 223 218 218 222 224 214 204 209 214 219 219 203 198 211 222 225 223 223 224 219 218 221 222 227 231
284 283 282 281 279 278 276 274 273 271 270 268 266 264 261 258 254 251 248 247 245 244 244 242 241 240 238 236 235 236 236 236 236 236 235 234 234 235 234 234 233 233 233 230 227 227 229 230 228 227 227 226 227 227 227 226 227 229 228 227 231 234 232 225 219 218 223 225 215 209 212 213 222 227 214 201 205 216 223 222 222 224 221 219 220 219 225 231
285 284 283 282 281 279 277 275 274 273 271 269 268 266 263 260 257 253 249 246 244 242 242 241 240 239 238 237 235 235 235 235 235 235 234 233 233 233 233 233 232 232 233 231 227 227 228 228 228 228 227 227 227 227 226 225 228 230 228 227 229 233 232 227 220 218 222 223 217 213 213 214 222 231 226 214 210 217 224 224 223 224 221 220 221 220 222 227
287 287 286 285 284 282 280 277 275 273 272 271 269 267 264 262 258 255 251 247 243 241 240 240 239 238 237 236 236 234 234 233 234 234 233 233 233 232 231 231 231 231 231 230 228 228 228 227 228 228 227 227 227 227 226 226 228 230 229 228 229 231 233 230 224 220 219 220 220 217 214 215 222 229 230 225 220 222 228 229 228 227 225 224 225 226 227 227
291 290 289 287 286 284 282 280 277 275 273 271 269 267 265 263 259 256 253 248 244 241 239 239 238 237 236 235 235 234 234 233 232 232 232 232 232 232 231 230 230 230 230 230 229 229 229 227 226 226 227 227 227 228 227 226 229 231 230 229 229 231 232 231 227 223 217 217 222 221 216 215 220 225 229 231 229 225 227 230 231 230 230 230 230 232 234 231
294 293 292 291 289 287 284 282 280 278 275 272 269 267 265 263 260 257 253 249 245 241 239 238 237 236 235 234 234 233 233 233 232 231 231 231 231 232 231 230 230 230 230 230 229 229 229 227 226 225 226 227 227 228 228 228 229 231 231 231 230 230 231 230 228 223 217 217 222 223 219 215 220 224 226 231 232 227 227 230 232 231 231 232 232 235 239 238
297 296 295 294 292 289 286 284 282 279 275 272 269 266 264 261 259 257 253 250 246 241 238 237 236 235 234 233 233 232 232 232 231 231 230 230 230 231 231 229 228 228 228 228 228 228 228 228 227 226 226 227 226 227 227 227 228 229 230 229 228 229 229 228 225 221 216 217 221 223 219 214 221 226 224 228 232 231 230 232 233 233 232 233 233 233 238 240
300 299 299 297 294 291 288 286 283 279 276 273 270 267 264 261 258 256 253 250 246 242 238 236 234 234 233 233 232 231 231 231 231 230 229 229 229 230 230 229 228 227 227 227 226 226 227 227 227 227 226 226 226 226 226 227 228 228 229 228 227 227 228 226 224 220 215 215 218 221 219 213 218 226 224 227 232 233 234 235 235 235 233 232 230 227 229 234
303 302 301 298 295 292 290 287 283 280 277 275 272 269 266 262 258 256 253 249 246 243 239 236 234 233 232 232 231 231 230 230 229 230 229 228 228 228 229 229 228 226 226 226 226 225 225 225 226 227 225 225 225 226 226 226 227 228 229 229 228 229 228 226 224 220 216 215 217 220 219 212 216 225 226 228 231 232 234 235 235 234 233 230 228 225 225 229
306 304 302 299 297 294 291 288 285 283 280 277 274 271 267 264 259 256 253 250 247 243 240 236 233 232 232 230 229 230 230 229 228 228 228 228 228 227 228 228 228 226 225 225 225 225 223 224 226 226 225 225 225 225 226 225 226 227 227 227 228 228 227 225 224 222 218 215 217 219 219 215 218 226 229 229 231 232 232 234 234 233 232 229 227 227 227 229
307 305 303 301 299 296 293 291 289 287 284 281 278 274 270 266 261 257 254 251 248 245 241 238 234 231 231 230 228 228 229 228 227 227 228 227 227 227 227 227 227 226 225 224 225 224 222 222 224 225 225 225 225 225 226 225 225 226 225 225 226 226 226 225 225 224 220 217 217 219 219 217 219 227 230 230 232 232 232 233 234 233 231 229 228 229 229 231
308 306 305 303 301 298 297 295 293 290 288 284 280 277 273 269 265 261 256 251 249 246 242 239 235 232 230 229 228 227 227 228 227 226 227 227 227 226 226 226 226 226 225 224 223 223 221 221 223 224 224 225 226 225 225 225 225 225 225 224 225 225 225 224 223 222 219 216 215 217 218 216 217 227 231 230 231 233 232 233 233 233 231 230 231 231 230 231
310 307 306 305 303 301 299 298 297 294 292 288 284 280 276 271 268 264 259 254 250 246 243 240 237 234 230 229 228 227 226 227 227 226 226 226 226 226 226 226 225 225 225 224 222 222 221 220 222 223 223 224 225 225 225 225 225 225 224 224 225 225 225 224 223 222 219 215 214 215 216 213 214 224 230 230 231 234 234 234 234 234 233 232 232 232 230 230
312 309 308 308 306 305 304 303 302 301 298 294 290 286 282 276 271 266 262 257 252 248 244 240 238 235 232 229 228 227 226 226 226 226 225 225 225 225 225 225 225 224 224 223 222 221 220 220 221 222 222 223 224 225 225 225 225 225 224 223 224 224 224 224 223 222 221 217 216 217 216 213 214 222 229 229 230 233 235 235 235 234 233 233 232 231 230 229
315 314 313 313 313 312 311 310 308 306 303 300 296 293 288 283 276 270 265 260 255 250 246 242 238 236 233 230 228 227 226 225 225 225 225 224 225 224 224 224 224 223 223 223 222 220 219 219 220 222 222 222 223 224 224 224 225 225 224 223 223 222 223 223 221 222 222 219 218 218 217 216 216 221 227 228 227 230 233 235 236 235 233 233 232 232 231 229
319 319 318 318 319 318 316 314 312 310 307 304 301 298 294 289 282 275 268 263 257 253 249 244 240 236 234 231 228 226 225 224 224 224 224 224 224 224 223 223 223 223 222 222 221 220 218 218 219 221 221 221 222 222 223 223 223 224 224 223 223 222 222 221 219 220 220 217 217 218 217 220 220 221 226 228 226 228 231 234 236 236 235 235 235 235 234 232
324 325 324 323 323 322 319 316 314 313 311 308 306 304 300 295 289 281 274 267 260 255 251 247 242 237 234 232 229 226 225 224 223 223 223 224 224 223 223 222 222 222 222 221 220 219 218 216 217 220 220 220 221 221 221 222 222 223 223 223 223 223 222 220 218 218 218 216 217 216 217 223 223 222 226 229 228 229 230 233 237 238 238 237 237 236 236 234
328 330 329 328 326 324 322 318 318 318 316 314 312 309 305 300 294 288 280 272 264 258 253 248 244 239 234 231 229 226 224 223 223 222 222 223 223 222 222 222 221 221 222 221 219 218 217 216 216 218 220 220 221 221 220 221 222 222 222 223 223 223 222 220 219 218 216 216 216 215 219 225 225 223 227 230 230 231 230 231 235 237 237 236 235 235 236 235
332 333 333 331 327 326 325 323 322 322 321 319 318 315 311 306 300 294 286 277 268 262 255 249 244 240 235 231 229 226 224 222 222 222 221 222 223 222 221 221 221 221 221 220 219 217 216 215 215 217 219 220 221 222 221 221 222 222 222 223 223 223 222 221 220 218 216 217 216 215 221 226 224 224 228 230 231 231 230 230 232 234 236 236 235 235 235 235
334 334 335 333 329 327 328 328 327 326 326 325 324 322 319 314 307 300 292 284 274 266 259 251 244 241 236 231 228 226 224 222 222 221 221 221 222 222 221 220 220 220 220 219 219 217 216 214 214 216 218 219 220 221 220 220 221 222 222 223 223 223 223 222 221 218 216 216 214 216 224 225 224 225 228 229 230 230 229 230 230 233 236 238 237 236 236 236
334 336 336 333 331 329 330 332 332 332 333 331 329 327 325 321 314 306 300 292 282 271 263 255 246 241 238 233 228 226 225 223 222 221 221 220 221 221 221 221 219 219 219 218 218 217 216 214 213 214 217 218 219 221 220 219 220 221 221 222 223 223 223 222 221 219 217 216 214 218 223 224 223 226 227 228 229 229 228 228 229 232 235 237 238 238 239 240
334 337 337 334 331 331 332 335 337 338 338 336 334 332 330 327 322 313 306 300 291 279 267 259 250 242 238 234 229 226 225 224 222 222 222 221 220 221 221 221 220 219 218 218 217 216 215 214 212 213 215 218 219 220 220 218 219 220 220 221 222 222 222 222 221 219 218 216 216 219 222 222 223 225 226 227 229 229 228 228 228 230 233 235 237 238 241 243
334 337 337 335 332 332 335 339 342 344 344 341 340 339 336 333 330 323 315 308 299 287 273 261 253 244 238 235 231 227 225 224 224 223 223 222 221 220 221 221 220 218 218 217 216 216 215 214 212 212 214 217 218 219 219 218 218 219 220 220 220 221 221 220 220 219 217 216 217 219 220 221 222 224 226 227 228 230 230 229 229 231 233 235 237 238 240 243
334 336 338 337 335 337 341 345 349 350 349 347 345 345 343 340 337 333 324 317 308 295 282 267 256 247 239 234 232 228 225 224 224 224 223 222 222 221 221 221 220 219 218 217 216 215 214 213 212 211 212 216 217 218 218 218 217 218 219 219 219 219 220 219 219 219 218 216 218 219 220 221 222 223 225 226 228 229 230 230 231 232 234 236 237 239 241 243
334 336 338 340 340 343 347 351 354 355 353 351 350 349 349 346 343 340 333 325 316 303 289 275 261 249 240 234 231 229 226 224 224 223 223 222 222 221 220 221 221 219 218 217 215 214 213 213 212 210 211 215 217 217 217 217 217 217 218 218 218 218 219 218 218 218 217 217 219 219 220 223 224 223 223 224 226 228 229 231 232 233 234 236 237 239 241 243
Height
10925 10926 10926 10927 10928 10929 10929 10930 10931 10932 10933 10934 10935 10935 10936 10937 10938 10938 10939 10940 10941 10942 10943 10945 10945 10946 10947 10947 10948 10948 10949 10949 10949 10950 10951 10951 10951 10953 10953 10955 10958 10960 10961 10963 10965 10966 10968 10970 10972 10974 10975 10977 10978 10979 10980 10981 10983 10984 10986 10987 10988 10989 10991 10992 10993 10994 10995 10996 10997 10999 10999 10999 11000 11001 11001 11001 11002 11002 11001 11001 11000 11000 10999 10998 10996 10995 10992 10990
10921 10921 10922 10923 10924 10925 10925 10926 10927 10928 10929 10930 10931 10932 10932 10933 10934 10935 10936 10937 10938 10938 10940 10941 10943 10944 10944 10945 10945 10946 10947 10947 10947 10948 10949 10949 10949 10950 10951 10953 10955 10957 10958 10960 10962 10963 10965 10967 10969 10971 10972 10974 10976 10977 10978 10979 10981 10982 10983 10984 10986 10987 10989 10990 10992 10993 10993 10994 10996 10997 10998 10998 10999 11000 11000 11001 11001 11001 11001 11001 11000 11000 10999 10998 10996 10994 10992 10990
10916 10917 10918 10919 10920 10920 10921 10922 10922 10924 10925 10926 10927 10928 10928 10929 10930 10931 10932 10933 10935 10935 10936 10937 10939 10940 10941 10942 10943 10944 10944 10945 10945 10946 10947 10947 10947 10948 10949 10950 10952 10953 10954 10956 10958 10960 10962 10964 10966 10968 10969 10971 10972 10974 10975 10976 10978 10980 10981 10982 10984 10985 10987 10988 10990 10991 10992 10993 10995 10996 10996 10997 10997 10998 10999 11000 11000 11000 11000 11000 11000 11000 10999 10997 10996 10994 10992 10990
10912 10913 10913 10914 10915 10916 10917 10917 10918 10919 10920 10921 10923 10923 10924 10925 10926 10927 10928 10929 10931 10932 10932 10934 10935 10937 10938 10939 10940 10941 10942 10942 10942 10943 10945 10945 10945 10945 10946 10948 10948 10949 10950 10952 10954 10957 10959 10961 10963 10965 10966 10967 10969 10971 10972 10974 10975 10977 10979 10980 10981 10983 10984 10986 10988 10989 10990 10992 10993 10994 10995 10995 10996 10996 10997 10998 10999 10999 11000 11000 10999 10999 10998 10997 10995 10993 10992 10990
10907 10908 10908 10909 10910 10911 10912 10912 10913 10914 10915 10917 10918 10919 10919 10920 10921 10923 10923 10925 10926 10928 10929 10930 10931 10932 10934 10935 10936 10937 10939 10940 10940 10940 10942 10944 10943 10943 10944 10945 10945 10946 10947 10949 10951 10953 10955 10957 10960 10961 10963 10964 10966 10968 10970 10972 10973 10975 10977 10977 10979 10981 10983 10984 10986 10987 10989 10990 10991 10992 10993 10993 10994 10994 10995 10996 10997 10998 10998 10998 10998 10998 10997 10996 10994 10993 10992 10990
10902 10902 10903 10904 10905 10905 10906 10907 10908 10909 10910 10911 10912 10913 10914 10915 10917 10918 10919 10920 10921 10923 10925 10925 10926 10928 10930 10931 10933 10934 10935 10936 10936 10937 10939 10941 10941 10941 10941 10942 10943 10943 10945 10946 10947 10949 10952 10954 10956 10958 10960 10961 10963 10966 10968 10970 10970 10972 10974 10974 10976 10979 10981 10982 10984 10985 10987 10988 10989 10989 10991 10991 10991 10992 10993 10994 10995 10996 10997 10997 10997 10997 10997 10996 10994 10992 10992 10990
10896 10897 10897 10898 10899 10900 10900 10901 10902 10903 10905 10906 10907 10908 10909 10910 10912 10913 10914 10915 10916 10918 10920 10921 10922 10923 10925 10927 10928 10930 10931 10932 10933 10934 10936 10937 10938 10938 10938 10939 10940 10941 10943 10944 10944 10947 10949 10950 10952 10955 10956 10958 10961 10964 10966 10966 10967 10968 10970 10972 10973 10976 10979 10980 10981 10983 10985 10986 10986 10987 10988 10989 10989 10990 10991 10992 10994 10995 10996 10996 10996 10996 10996 10995 10993 10992 10992 10990
10890 10891 10891 10892 10893 10893 10894 10895 10896 10897 10898 10899 10901 10902 10903 10904 10906 10907 10909 10910 10912 10913 10915 10916 10917 10919 10920 10922 10923 10925 10927 10928 10929 10930 10931 10933 10935 10935 10936 10937 10937 10939 10940 10941 10942 10943 10944 10946 10949 10951 10953 10956 10959 10961 10962 10962 10963 10964 10967 10970 10971 10973 10976 10977 10979 10981 10982 10983 10983 10984 10985 10986 10987 10988 10989 10991 10992 10993 10994 10995 10995 10995 10995 10994 10993 10992 10992 10990
10884 10884 10885 10886 10886 10887 10887 10888 10890 10891 10892 10893 10894 10896 10896 10898 10900 10901 10903 10905 10906 10907 10909 10910 10912 10913 10915 10917 10918 10920 10922 10923 10924 10926 10927 10928 10931 10933 10933 10934 10935 10936 10937 10938 10938 10939 10941 10944 10947 10949 10951 10953 10954 10955 10957 10959 10960 10962 10965 10968 10969 10970 10972 10974 10976 10978 10978 10980 10980 10981 10982 10984 10985 10985 10987 10989 10990 10992 10993 10994 10994 10994 10994 10993 10993 10992 10992 10990
10877 10878 10878 10879 10879 10880 10881 10881 10883 10884 10885 10886 10888 10889 10890 10891 10893 10895 10896 10898 10900 10902 10903 10905 10906 10907 10909 10911 10912 10915 10917 10918 10920 10922 10922 10924 10927 10929 10930 10931 10932 10933 10934 10935 10935 10936 10940 10943 10945 10946 10947 10947 10948 10951 10954 10956 10959 10961 10963 10964 10965 10966 10966 10969 10972 10973 10975 10976 10978 10978 10979 10982 10982 10983 10985 10987 10988 10990 10991 10992 10992 10992 10992 10992 10992 10992 10992 10990
10870 10870 10871 10872 10872 10872 10873 10874 10875 10877 10877 10878 10881 10882 10883 10884 10886 10887 10889 10891 10893 10896 10897 10899 10900 10901 10903 10904 10906 10910 10912 10913 10915 10916 10917 10919 10922 10925 10927 10927 10928 10930 10931 10931 10932 10935 10938 10941 10941 10941 10942 10943 10945 10948 10952 10954 10956 10956 10957 10958 10960 10961 10962 10964 10966 10968 10971 10973 10975 10975 10976 10979 10980 10981 10983 10985 10986 10988 10989 10990 10990 10991 10991 10991 10992 10992 10992 10990
10863 10863 10864 10864 10864 10865 10866 10866 10867 10869 10870 10871 10873 10875 10875 10876 10878 10879 10881 10884 10886 10889 10891 10892 10893 10895 10896 10897 10900 10905 10906 10907 10909 10910 10913 10915 10917 10920 10923 10924 10925 10926 10927 10928 10930 10933 10935 10937 10938 10938 10939 10941 10943 10946 10949 10950 10951 10951 10952 10954 10956 10957 10957 10959 10961 10964 10967 10970 10971 10972 10973 10976 10978 10978 10981 10983 10984 10985 10986 10988 10989 10989 10990 10990 10991 10992 10991 10990
10856 10856 10856 10857 10857 10857 10857 10859 10860 10860 10862 10863 10865 10867 10868 10869 10870 10871 10873 10875 10879 10882 10883 10885 10886 10887 10888 10889 10895 10900 10899 10900 10903 10906 10910 10911 10911 10914 10917 10919 10920 10921 10922 10925 10927 10929 10931 10933 10934 10935 10937 10938 10939 10943 10946 10947 10946 10947 10948 10950 10952 10952 10953 10955 10957 10960 10963 10965 10967 10968 10970 10973 10975 10976 10978 10980 10982 10983 10984 10986 10987 10988 10989 10989 10990 10991 10991 10990
10848 10848 10849 10849 10849 10849 10849 10850 10851 10852 10853 10855 10857 10859 10860 10860 10862 10863 10865 10867 10872 10874 10875 10877 10878 10880 10880 10881 10889 10893 10892 10894 10898 10902 10904 10904 10905 10907 10910 10913 10914 10916 10918 10921 10924 10926 10927 10929 10931 10933 10934 10935 10937 10940 10943 10943 10943 10944 10944 10946 10947 10948 10950 10953 10954 10956 10958 10960 10962 10964 10967 10970 10971 10973 10975 10977 10980 10981 10982 10984 10985 10986 10987 10988 10990 10990 10990 10989
10839 10840 10840 10840 10840 10840 10840 10841 10842 10843 10844 10846 10848 10851 10851 10852 10853 10854 10856 10859 10864 10866 10867 10869 10870 10871 10871 10873 10883 10885 10884 10888 10892 10894 10895 10896 10898 10900 10903 10906 10909 10912 10914 10918 10920 10922 10924 10925 10927 10930 10930 10932 10935 10937 10940 10941 10940 10940 10942 10943 10944 10946 10948 10950 10951 10952 10954 10956 10957 10960 10964 10967 10969 10970 10972 10975 10977 10979 10981 10982 10984 10985 10986 10987 10989 10990 10989 10989
10829 10830 10830 10831 10830 10830 10831 10831 10832 10833 10834 10836 10839 10841 10842 10842 10844 10845 10846 10851 10856 10857 10858 10861 10861 10862 10863 10865 10874 10878 10878 10881 10884 10885 10887 10889 10891 10894 10896 10900 10903 10906 10909 10912 10916 10918 10920 10921 10922 10925 10928 10931 10932 10932 10935 10938 10937 10936 10938 10940 10942 10944 10945 10946 10948 10949 10951 10952 10953 10957 10960 10964 10966 10967 10969 10972 10975 10976 10979 10980 10982 10983 10984 10986 10988 10989 10989 10988
10819 10819 10820 10820 10820 10820 10820 10821 10822 10822 10824 10825 10828 10831 10832 10832 10834 10835 10836 10842 10848 10849 10850 10851 10851 10853 10855 10858 10865 10871 10872 10872 10874 10877 10878 10880 10884 10887 10890 10892 10895 10900 10904 10908 10912 10915 10916 10917 10918 10922 10926 10928 10928 10929 10931 10933 10932 10931 10934 10938 10940 10942 10943 10944 10946 10947 10948 10949 10951 10954 10958 10960 10962 10963 10966 10969 10972 10974 10976 10978 10980 10982 10983 10985 10987 10988 10988 10987
10808 10808 10808 10809 10810 10809 10809 10810 10810 10811 10812 10813 10816 10819 10821 10821 10822 10823 10826 10834 10839 10840 10841 10842 10842 10844 10847 10851 10856 10862 10864 10863 10864 10867 10869 10871 10875 10880 10883 10885 10889 10895 10900 10904 10907 10909 10911 10912 10914 10919 10923 10925 10925 10926 10924 10923 10926 10929 10932 10937 10939 10941 10941 10943 10944 10945 10946 10948 10950 10953 10955 10957 10959 10961 10964 10967 10969 10971 10974 10976 10978 10980 10982 10984 10986 10987 10987 10986
10797 10797 10796 10797 10799 10798 10797 10798 10799 10799 10800 10801 10803 10805 10808 10808 10810 10811 10814 10823 10829 10829 10831 10832 10833 10835 10838 10844 10847 10851 10855 10854 10854 10857 10860 10862 10866 10871 10875 10879 10884 10889 10895 10898 10900 10903 10905 10907 10912 10916 10918 10918 10918 10918 10915 10916 10923 10928 10931 10935 10938 10939 10940 10942 10943 10944 10945 10947 10948 10950 10952 10955 10957 10959 10962 10964 10967 10969 10972 10974 10977 10979 10981 10984 10985 10985 10985 10985
10787 10786 10785 10785 10786 10786 10785 10785 10786 10786 10787 10788 10789 10792 10794 10795 10798 10798 10800 10811 10818 10818 10820 10823 10824 10826 10829 10834 10838 10841 10843 10846 10846 10848 10851 10853 10857 10863 10868 10874 10878 10883 10888 10890 10892 10895 10899 10904 10910 10909 10908 10908 10911 10912 10912 10914 10921 10926 10930 10934 10936 10937 10939 10940 10941 10942 10944 10945 10946 10948 10951 10954 10956 10958 10961 10962 10965 10967 10970 10973 10975 10978 10980 10983 10984 10984 10984 10984
10776 10775 10773 10773 10774 10773 10772 10772 10772 10773 10774 10775 10775 10777 10779 10780 10783 10784 10786 10795 10805 10807 10808 10812 10814 10816 10820 10823 10828 10830 10832 10836 10837 10839 10843 10844 10849 10856 10862 10868 10873 10878 10879 10880 10885 10890 10897 10904 10902 10898 10899 10904 10908 10912 10912 10914 10918 10922 10927 10931 10933 10935 10937 10938 10940 10941 10942 10943 10944 10947 10950 10952 10954 10957 10958 10960 10963 10965 10968 10971 10974 10977 10979 10982 10983 10984 10984 10983
10765 10764 10762 10760 10761 10761 10759 10759 10759 10759 10760 10760 10762 10763 10764 10766 10767 10770 10773 10778 10789 10796 10795 10799 10803 10805 10809 10812 10816 10819 10822 10824 10826 10832 10835 10835 10840 10849 10855 10861 10867 10870 10869 10873 10881 10887 10896 10897 10888 10887 10894 10899 10905 10909 10910 10911 10914 10917 10922 10928 10931 10932 10934 10936 10938 10939 10940 10941 10943 10945 10948 10951 10953 10955 10956 10958 10961 10964 10967 10970 10972 10975 10978 10981 10982 10983 10983 10983
10753 10752 10750 10747 10748 10748 10746 10745 10745 10746 10746 10746 10749 10750 10750 10750 10751 10756 10761 10761 10770 10781 10782 10785 10790 10794 10797 10800 10804 10807 10810 10812 10816 10823 10827 10827 10833 10840 10847 10854 10859 10860 10862 10870 10876 10882 10889 10881 10873 10882 10890 10894 10900 10904 10905 10907 10910 10914 10916 10922 10926 10927 10931 10933 10935 10937 10939 10940 10941 10943 10946 10949 10952 10954 10956 10958 10961 10963 10966 10968 10971 10973 10976 10979 10981 10982 10982 10982
10741 10740 10738 10735 10733 10734 10732 10730 10730 10731 10732 10733 10735 10736 10737 10736 10737 10741 10747 10748 10753 10763 10769 10771 10775 10781 10784 10787 10792 10795 10798 10801 10806 10814 10819 10820 10824 10831 10840 10845 10848 10852 10858 10864 10867 10874 10876 10865 10868 10882 10885 10888 10894 10897 10900 10904 10907 10910 10911 10914 10919 10922 10927 10930 10932 10935 10937 10939 10941 10941 10944 10948 10951 10953 10955 10957 10959 10961 10964 10966 10969 10972 10974 10977 10979 10980 10982 10982
10730 10726 10725 10722 10718 10718 10717 10714 10714 10714 10716 10718 10720 10723 10724 10723 10724 10727 10731 10734 10737 10744 10751 10755 10761 10767 10770 10774 10779 10782 10785 10788 10793 10803 10808 10810 10815 10823 10830 10834 10839 10846 10851 10853 10857 10865 10864 10857 10867 10878 10877 10882 10888 10892 10897 10899 10902 10906 10906 10906 10910 10917 10923 10927 10931 10933 10934 10938 10941 10941 10942 10946 10949 10950 10953 10956 10958 10959 10962 10964 10968 10971 10972 10975 10977 10978 10980 10981
10717 10713 10711 10708 10705 10703 10701 10698 10697 10697 10699 10701 10704 10708 10710 10710 10711 10713 10717 10719 10722 10726 10733 10738 10745 10752 10757 10760 10764 10769 10773 10773 10779 10791 10796 10800 10807 10814 10818 10824 10831 10836 10838 10841 10848 10856 10854 10850 10862 10870 10871 10877 10882 10888 10892 10893 10898 10902 10900 10898 10902 10912 10920 10924 10928 10930 10932 10935 10939 10941 10942 10944 10947 10950 10953 10956 10956 10957 10960 10963 10966 10969 10971 10973 10974 10976 10978 10980
10703 10699 10697 10695 10691 10688 10684 10681 10680 10680 10680 10682 10686 10690 10693 10695 10696 10698 10701 10704 10706 10709 10715 10722 10728 10736 10744 10747 10750 10755 10757 10759 10766 10777 10787 10791 10796 10802 10808 10814 10820 10822 10825 10831 10842 10851 10847 10845 10857 10864 10866 10871 10878 10883 10884 10886 10894 10893 10890 10893 10899 10907 10915 10921 10926 10928 10929 10931 10937 10941 10941 10942 10945 10948 10952 10955 10955 10957 10959 10962 10964 10967 10969 10971 10972 10974 10976 10978
10688 10686 10684 10681 10677 10673 10669 10664 10662 10662 10662 10663 10666 10670 10675 10678 10679 10682 10684 10687 10690 10693 10699 10706 10710 10718 10728 10732 10735 10738 10741 10747 10753 10762 10775 10780 10783 10791 10798 10802 10807 10809 10813 10823 10838 10843 10837 10839 10851 10855 10857 10865 10872 10873 10872 10879 10885 10880 10882 10893 10896 10900 10909 10916 10922 10926 10926 10929 10937 10940 10940 10941 10942 10943 10950 10954 10955 10957 10957 10960 10962 10964 10967 10969 10970 10972 10974 10976
10674 10672 10671 10668 10663 10658 10653 10649 10646 10644 10644 10645 10647 10650 10654 10658 10661 10665 10667 10669 10675 10678 10681 10687 10693 10701 10709 10714 10720 10723 10727 10734 10739 10748 10761 10766 10769 10777 10783 10787 10793 10797 10802 10815 10828 10829 10826 10832 10841 10844 10852 10860 10861 10861 10866 10875 10876 10871 10880 10890 10890 10893 10903 10911 10919 10923 10924 10929 10937 10939 10939 10941 10939 10940 10948 10953 10954 10953 10953 10956 10958 10961 10965 10967 10968 10970 10972 10974
10662 10659 10657 10654 10649 10644 10639 10635 10633 10630 10628 10628 10630 10632 10635 10639 10643 10646 10649 10652 10657 10661 10663 10669 10676 10684 10691 10696 10703 10709 10713 10720 10725 10734 10746 10751 10755 10761 10767 10773 10781 10787 10794 10805 10816 10818 10818 10824 10831 10839 10848 10851 10851 10854 10862 10869 10867 10866 10876 10884 10885 10890 10897 10906 10915 10918 10922 10930 10935 10936 10937 10939 10937 10938 10944 10949 10949 10949 10950 10953 10956 10959 10962 10964 10966 10968 10970 10972
10650 10646 10644 10642 10637 10631 10624 10621 10620 10618 10615 10613 10613 10615 10617 10621 10625 10627 10631 10634 10638 10645 10648 10651 10658 10667 10673 10678 10685 10692 10698 10704 10710 10719 10729 10736 10739 10744 10752 10759 10767 10776 10782 10793 10805 10808 10809 10817 10827 10835 10839 10840 10844 10849 10856 10861 10859 10861 10871 10877 10881 10886 10892 10901 10910 10916 10925 10930 10929 10931 10934 10936 10937 10937 10938 10941 10944 10947 10949 10951 10954 10957 10960 10962 10964 10965 10968 10970
10638 10635 10631 10629 10625 10618 10611 10606 10605 10605 10603 10600 10598 10599 10600 10603 10607 10610 10613 10616 10623 10630 10631 10633 10640 10648 10655 10661 10668 10675 10681 10688 10695 10703 10711 10720 10724 10728 10736 10745 10755 10765 10773 10783 10794 10796 10801 10812 10820 10824 10827 10831 10838 10843 10848 10853 10854 10857 10865 10871 10877 10882 10888 10897 10906 10916 10925 10925 10922 10925 10932 10935 10935 10933 10933 10934 10939 10943 10945 10947 10951 10955 10958 10960 10962 10963 10965 10969
10628 10623 10619 10616 10612 10605 10599 10595 10592 10591 10589 10586 10584 10584 10585 10587 10591 10594 10597 10600 10607 10613 10614 10618 10624 10630 10637 10644 10651 10658 10664 10671 10679 10687 10695 10704 10710 10713 10721 10734 10746 10755 10764 10773 10782 10787 10794 10802 10808 10814 10819 10825 10831 10836 10842 10847 10849 10852 10859 10865 10873 10878 10884 10894 10903 10911 10919 10918 10916 10920 10928 10934 10931 10928 10930 10929 10930 10936 10940 10943 10948 10952 10955 10958 10959 10961 10963 10966
10617 10612 10607 10603 10598 10592 10587 10584 10581 10577 10575 10572 10570 10570 10571 10573 10576 10578 10580 10584 10590 10595 10598 10603 10607 10612 10620 10627 10634 10640 10646 10653 10661 10670 10679 10688 10695 10698 10706 10720 10732 10741 10750 10759 10768 10776 10783 10792 10801 10809 10813 10817 10823 10828 10833 10837 10839 10844 10850 10856 10864 10871 10878 10887 10894 10902 10910 10910 10910 10915 10924 10931 10927 10922 10925 10922 10922 10931 10936 10940 10944 10948 10952 10955 10957 10960 10961 10963
10605 10601 10596 10591 10585 10580 10576 10573 10568 10565 10562 10560 10558 10557 10558 10560 10561 10563 10565 10568 10572 10577 10583 10587 10591 10596 10603 10609 10617 10623 10628 10637 10645 10653 10663 10672 10678 10684 10692 10703 10716 10728 10736 10744 10754 10763 10773 10785 10794 10798 10803 10809 10814 10819 10822 10826 10831 10837 10842 10848 10859 10867 10872 10878 10885 10894 10900 10901 10905 10912 10920 10926 10920 10913 10917 10917 10918 10927 10932 10936 10941 10944 10948 10951 10954 10957 10958 10959
10593 10589 10585 10580 10574 10570 10566 10561 10557 10553 10551 10549 10547 10546 10546 10547 10548 10549 10550 10552 10556 10561 10567 10571 10576 10581 10586 10593 10601 10606 10611 10621 10629 10636 10645 10654 10662 10670 10678 10688 10701 10714 10722 10730 10741 10752 10765 10777 10781 10785 10794 10800 10804 10808 10811 10819 10826 10829 10835 10847 10858 10862 10863 10869 10877 10885 10892 10897 10903 10908 10913 10918 10912 10906 10911 10913 10914 10922 10928 10931 10936 10940 10944 10948 10950 10952 10953 10955
10581 10576 10573 10569 10563 10558 10555 10551 10546 10543 10542 10539 10538 10537 10536 10536 10536 10536 10537 10539 10542 10546 10550 10556 10562 10566 10569 10576 10584 10589 10594 10603 10613 10621 10628 10637 10646 10655 10665 10674 10685 10699 10709 10718 10728 10740 10756 10768 10769 10775 10785 10789 10793 10798 10802 10810 10816 10819 10831 10844 10848 10848 10852 10862 10871 10878 10888 10895 10900 10903 10908 10913 10908 10903 10907 10910 10911 10917 10923 10926 10930 10934 10939 10944 10946 10947 10949 10951
10572 10566 10562 10558 10553 10548 10544 10541 10538 10535 10532 10530 10529 10527 10527 10526 10525 10525 10526 10527 10529 10532 10536 10541 10547 10551 10553 10559 10567 10573 10578 10586 10597 10605 10612 10621 10630 10640 10650 10660 10671 10684 10695 10706 10716 10729 10747 10756 10756 10762 10773 10778 10783 10788 10792 10801 10808 10814 10825 10831 10832 10838 10847 10857 10866 10874 10885 10892 10895 10899 10904 10909 10908 10901 10901 10906 10907 10911 10917 10921 10925 10930 10935 10939 10941 10943 10946 10948
10563 10557 10553 10549 10545 10540 10535 10532 10530 10527 10524 10522 10520 10519 10517 10516 10515 10514 10514 10515 10516 10519 10523 10527 10532 10536 10539 10544 10550 10556 10562 10569 10580 10589 10597 10605 10615 10626 10637 10646 10657 10669 10680 10693 10704 10718 10734 10742 10742 10750 10761 10767 10772 10778 10785 10795 10802 10806 10813 10819 10823 10832 10841 10849 10858 10866 10875 10883 10888 10893 10898 10905 10906 10897 10894 10901 10902 10904 10911 10916 10920 10925 10930 10933 10936 10939 10943 10945
10553 10548 10546 10542 10537 10533 10528 10525 10523 10520 10516 10514 10511 10510 10508 10507 10506 10504 10503 10504 10505 10506 10510 10514 10517 10521 10526 10530 10534 10541 10549 10555 10564 10573 10582 10591 10601 10613 10623 10632 10644 10655 10665 10679 10692 10706 10720 10728 10731 10739 10749 10756 10760 10769 10780 10785 10789 10794 10803 10811 10818 10826 10835 10842 10850 10857 10865 10874 10880 10885 10891 10899 10901 10891 10888 10895 10898 10899 10905 10911 10915 10920 10925 10928 10932 10935 10939 10941
10545 10538 10537 10535 10530 10526 10522 10518 10515 10512 10509 10505 10503 10501 10500 10497 10496 10495 10494 10493 10494 10495 10498 10501 10503 10506 10512 10516 10521 10528 10535 10542 10550 10558 10568 10577 10586 10598 10608 10617 10628 10640 10652 10665 10679 10693 10706 10715 10721 10725 10735 10745 10751 10761 10769 10771 10777 10785 10793 10802 10809 10818 10825 10832 10844 10854 10861 10871 10877 10880 10887 10893 10893 10886 10882 10889 10894 10895 10899 10905 10910 10916 10920 10924 10928 10931 10935 10937
10540 10532 10528 10526 10523 10519 10515 10512 10508 10505 10501 10498 10495 10494 10492 10489 10487 10485 10484 10483 10483 10484 10486 10488 10491 10494 10499 10503 10508 10515 10521 10529 10537 10545 10554 10562 10571 10582 10593 10602 10613 10626 10638 10651 10664 10679 10692 10704 10710 10713 10724 10736 10742 10749 10754 10759 10769 10776 10784 10794 10799 10807 10814 10823 10838 10848 10854 10865 10872 10875 10884 10887 10885 10881 10878 10883 10890 10892 10895 10899 10904 10910 10915 10919 10923 10926 10930 10933
10534 10527 10521 10519 10517 10513 10509 10505 10502 10499 10495 10491 10488 10486 10484 10481 10478 10476 10475 10474 10473 10474 10475 10477 10480 10484 10487 10491 10496 10502 10507 10514 10523 10531 10539 10547 10556 10568 10579 10589 10600 10611 10624 10637 10650 10665 10680 10693 10699 10703 10714 10724 10726 10730 10737 10746 10757 10765 10775 10785 10789 10797 10806 10817 10832 10838 10843 10856 10862 10870 10880 10879 10876 10877 10875 10878 10885 10889 10892 10895 10898 10904 10910 10914 10918 10922 10925 10929
10528 10523 10518 10513 10510 10507 10503 10499 10497 10494 10490 10486 10483 10480 10477 10473 10469 10467 10466 10465 10463 10464 10466 10467 10470 10473 10476 10478 10483 10490 10495 10502 10509 10517 10525 10532 10542 10554 10565 10576 10587 10597 10609 10622 10637 10652 10666 10680 10687 10691 10698 10703 10703 10709 10722 10735 10746 10754 10764 10773 10779 10789 10799 10811 10823 10826 10836 10849 10855 10867 10875 10866 10865 10873 10873 10875 10882 10887 10891 10894 10895 10899 10905 10909 10914 10917 10920 10923
10522 10519 10515 10510 10505 10501 10497 10493 10490 10488 10484 10481 10477 10474 10471 10468 10462 10458 10457 10456 10455 10455 10457 10458 10460 10462 10465 10468 10472 10478 10483 10489 10496 10503 10512 10519 10528 10540 10552 10562 10573 10584 10595 10608 10624 10638 10651 10666 10675 10676 10680 10686 10689 10699 10715 10727 10735 10744 10754 10763 10772 10780 10791 10803 10811 10817 10833 10844 10851 10865 10865 10853 10860 10870 10870 10873 10880 10884 10889 10892 10893 10895 10898 10902 10907 10911 10914 10917
10519 10515 10512 10508 10502 10498 10493 10487 10484 10481 10478 10475 10472 10468 10465 10462 10457 10453 10450 10448 10447 10447 10448 10449 10450 10451 10454 10457 10461 10465 10470 10476 10482 10489 10497 10505 10514 10525 10537 10548 10560 10571 10581 10595 10611 10625 10638 10653 10663 10664 10669 10678 10684 10694 10710 10720 10727 10738 10748 10756 10765 10773 10784 10794 10802 10816 10832 10837 10846 10858 10850 10844 10858 10867 10865 10870 10875 10879 10885 10888 10890 10891 10891 10895 10901 10905 10908 10911
10517 10513 10509 10505 10500 10496 10492 10487 10481 10477 10473 10469 10466 10463 10459 10455 10451 10447 10443 10440 10439 10440 10439 10439 10441 10442 10444 10447 10451 10455 10460 10465 10470 10476 10483 10492 10501 10512 10523 10535 10547 10558 10569 10583 10598 10611 10625 10639 10649 10655 10660 10668 10675 10685 10699 10711 10720 10730 10740 10749 10758 10766 10776 10787 10800 10816 10824 10828 10843 10849 10837 10840 10856 10859 10860 10865 10867 10872 10879 10883 10887 10888 10887 10890 10895 10898 10901 10905
10514 10511 10507 10503 10498 10493 10489 10485 10480 10475 10470 10465 10461 10457 10454 10449 10444 10440 10437 10434 10432 10433 10432 10431 10432 10434 10436 10438 10442 10446 10450 10455 10460 10464 10471 10480 10490 10500 10510 10521 10534 10546 10557 10571 10584 10598 10613 10626 10638 10646 10650 10657 10666 10674 10687 10700 10709 10720 10731 10741 10749 10757 10768 10783 10798 10808 10815 10826 10837 10833 10826 10838 10849 10849 10852 10856 10857 10864 10872 10877 10882 10883 10883 10886 10889 10893 10897 10901
10511 10508 10505 10501 10496 10491 10487 10483 10478 10473 10468 10462 10458 10453 10449 10445 10439 10434 10431 10428 10426 10426 10425 10424 10425 10427 10428 10431 10434 10438 10442 10446 10451 10455 10461 10470 10480 10489 10498 10509 10522 10534 10546 10559 10572 10586 10601 10614 10627 10637 10642 10648 10656 10662 10674 10690 10700 10710 10721 10728 10736 10748 10762 10778 10790 10798 10808 10820 10824 10819 10821 10833 10838 10839 10842 10845 10850 10859 10867 10872 10877 10877 10878 10882 10885 10890 10893 10896
10507 10505 10502 10498 10494 10489 10485 10480 10474 10469 10464 10459 10454 10450 10444 10440 10434 10428 10425 10423 10421 10419 10419 10418 10419 10420 10422 10424 10427 10431 10435 10439 10443 10448 10454 10462 10470 10479 10488 10498 10511 10524 10535 10548 10561 10575 10590 10603 10616 10629 10634 10636 10643 10651 10663 10680 10692 10700 10707 10714 10727 10742 10755 10767 10778 10787 10799 10810 10812 10812 10817 10824 10827 10829 10833 10840 10848 10855 10860 10866 10870 10871 10875 10879 10882 10886 10888 10891
10504 10502 10499 10496 10491 10486 10482 10476 10471 10466 10461 10456 10451 10446 10440 10435 10430 10424 10419 10417 10416 10414 10413 10413 10413 10414 10416 10418 10421 10424 10428 10432 10436 10441 10448 10455 10463 10471 10480 10489 10500 10514 10525 10538 10552 10566 10580 10592 10605 10618 10624 10624 10630 10642 10655 10670 10682 10686 10692 10705 10720 10733 10743 10755 10768 10778 10792 10802 10803 10805 10811 10815 10816 10820 10826 10836 10844 10849 10855 10861 10863 10867 10872 10875 10877 10880 10883 10886
10502 10499 10496 10493 10488 10484 10479 10474 10469 10464 10458 10453 10448 10443 10438 10432 10426 10421 10416 10412 10411 10409 10408 10408 10408 10409 10411 10412 10415 10418 10422 10425 10428 10433 10441 10448 10454 10463 10473 10481 10491 10505 10516 10528 10543 10557 10570 10583 10594 10607 10616 10615 10619 10633 10647 10659 10668 10672 10682 10698 10712 10723 10734 10747 10760 10772 10785 10792 10793 10799 10806 10804 10805 10813 10822 10830 10837 10843 10849 10854 10858 10864 10868 10870 10872 10874 10877 10881